Date,TemperatureHighF,TemperatureAvgF,TemperatureLowF,DewpointHighF,DewpointAvgF,DewpointLowF,HumidityHigh,HumidityAvg,HumidityLow,PressureMaxIn,PressureMinIn,WindSpeedMaxMPH,WindSpeedAvgMPH,GustSpeedMaxMPH,PrecipitationSumIn
2013-1-1,9.7,4.1,-0.2,5.0,0.4,-4.0,87,84,74,30.46,30.20,27,11,0,0.00
2013-1-2,12.1,4.7,0.2,7.0,-0.1,-3.0,87,81,59,30.57,30.43,16,9,0,0.00
2013-1-3,19.0,8.9,-0.1,0.0,-9.3,-99.9,84,52,33,30.68,30.55,20,-34,0,0.00
2013-1-4,39.9,28.0,15.5,7.0,-1.5,-14.0,47,30,11,30.56,30.01,9,3,0,0.00
2013-1-5,25.5,18.7,12.6,4.0,-2.4,-8.0,51,40,29,30.41,29.99,28,16,0,0.00
2013-1-6,35.4,26.4,18.3,0.0,-5.1,-16.0,42,26,15,30.38,29.91,35,20,0,0.00
2013-1-7,29.6,23.6,19.4,8.0,-2.7,-6.0,57,32,23,30.00,29.81,32,19,0,0.00
2013-1-8,23.7,19.2,16.1,17.0,13.4,2.0,91,79,48,30.37,29.79,46,23,0,0.00
2013-1-9,39.1,28.5,17.2,16.0,10.8,4.0,88,52,27,30.42,29.94,35,23,0,0.00
2013-1-10,34.6,30.4,23.2,17.0,5.6,-1.0,76,37,23,29.93,29.30,40,26,0,0.00
2013-1-11,24.7,10.5,-0.7,16.0,4.2,-4.0,89,76,61,29.82,29.16,41,17,0,0.00
2013-1-12,1.0,-3.4,-6.8,-3.0,-7.4,-11.0,84,83,82,30.27,29.83,19,7,0,0.00
2013-1-13,-0.7,-6.9,-9.6,-5.0,-11.2,-14.0,83,81,81,30.46,30.28,10,5,0,0.00
2013-1-14,1.1,-7.7,-13.4,-3.0,-20.0,-99.9,84,73,75,30.54,30.39,25,-70,0,0.00
2013-1-15,9.9,0.8,-10.1,7.0,-4.0,-16.0,89,80,73,30.71,30.52,27,19,0,0.01
2013-1-16,27.1,17.0,8.9,15.0,11.0,6.0,90,78,60,30.68,30.51,23,15,0,0.00
2013-1-17,35.1,24.7,17.6,10.0,7.5,6.0,66,49,32,30.57,30.34,24,12,0,0.00
2013-2-3,27.9,15.2,20.2,5.0,-30.6,-99.9,47,29,38,30.02,29.92,29,-312,0,0.00
2013-2-4,29.7,21.3,15.7,14.0,8.9,3.0,73,60,43,30.03,29.88,40,23,0,0.00
2013-2-5,34.0,26.4,19.6,21.0,16.4,13.0,76,66,55,30.07,29.89,36,20,0,0.00
2013-2-6,29.9,24.3,15.1,23.0,17.1,11.0,90,74,58,30.06,29.75,32,11,0,0.00
2013-2-7,29.9,20.7,11.8,12.0,0.5,-9.0,88,48,21,30.25,30.03,29,18,0,0.00
2013-2-8,36.0,27.0,17.8,10.0,1.8,-9.0,52,34,21,30.07,29.64,28,13,0,0.00
2013-2-9,24.5,17.0,10.3,19.0,13.5,7.0,92,86,48,29.65,29.45,15,4,0,0.00
2013-2-10,13.1,8.5,2.9,11.0,5.8,0.0,90,88,86,30.18,29.66,11,2,0,0.00
2013-2-11,15.3,5.9,1.1,10.0,1.7,-3.0,87,83,76,30.27,30.18,24,6,0,0.06
2013-2-12,15.8,6.7,0.2,5.0,-1.8,-99.9,88,74,59,30.37,30.22,28,-2,0,0.06
2013-2-13,20.2,14.1,7.9,15.0,11.1,5.0,91,87,79,30.35,30.13,35,23,0,0.00
2013-2-14,16.1,12.9,9.2,14.0,10.6,6.0,91,90,88,30.36,30.13,22,9,0,0.00
2013-2-15,16.4,12.1,8.4,13.0,8.7,6.0,95,86,70,30.52,30.34,32,12,0,0.00
2013-2-16,30.7,21.8,13.9,15.0,10.4,8.0,87,63,42,30.46,30.05,38,22,0,0.00
2013-2-17,30.9,22.0,9.7,13.0,6.7,1.0,88,55,33,30.05,29.62,36,18,0,0.00
2013-2-18,17.3,10.8,6.2,7.0,4.1,-2.0,88,75,53,30.22,29.75,31,14,0,0.00
2013-2-19,32.6,22.3,12.1,2.0,-5.8,-15.0,61,30,17,30.22,29.76,29,15,0,0.00
2013-2-20,35.4,24.6,12.6,13.0,4.4,-5.0,91,46,27,29.75,29.47,14,6,0,0.00
2013-2-21,18.0,11.6,8.1,15.0,8.9,5.0,91,88,85,29.99,29.52,18,6,0,0.04
2013-2-22,15.1,8.9,5.9,12.0,4.9,3.0,99,84,67,30.11,29.96,34,14,0,0.04
2013-2-23,22.7,13.9,6.2,16.0,8.9,2.0,92,81,67,29.98,29.80,42,22,0,0.00
2013-2-24,14.2,10.3,5.0,12.0,7.7,2.0,99,89,87,30.25,29.82,11,5,0,0.00
2013-2-25,22.3,12.1,3.6,10.0,5.2,0.0,88,75,55,30.27,30.01,27,17,0,0.00
2013-2-26,13.7,10.6,6.9,10.0,7.1,4.0,89,85,70,30.33,29.93,25,9,0,0.00
2013-2-27,16.0,8.2,3.9,8.0,2.6,0.0,88,79,51,30.51,30.33,24,12,0,0.00
2013-2-28,19.4,12.0,4.9,13.0,6.4,0.0,91,78,60,30.52,30.43,32,18,0,0.00
2013-3-1,28.5,20.4,14.5,22.0,17.1,12.0,93,87,67,30.53,30.43,26,15,0,0.00
2013-3-2,36.2,27.9,21.1,24.0,20.2,17.0,93,74,56,30.44,30.01,32,20,0,0.00
2013-3-3,32.7,28.9,24.8,27.0,20.9,16.0,92,73,55,30.01,29.55,29,17,0,0.00
2013-3-4,24.7,17.7,11.0,20.0,13.2,1.0,91,83,56,29.93,29.57,23,12,0,0.00
2013-3-6,40.9,36.2,31.5,14.0,12.1,10.0,46,37,30,29.86,29.67,43,19,0,0.00
2013-3-7,42.6,36.0,31.3,17.0,12.0,5.0,50,38,27,29.83,29.66,35,16,0,0.00
2013-3-8,43.1,33.5,24.6,23.0,12.8,5.0,93,46,28,29.80,29.50,30,13,0,0.00
2013-3-9,26.0,18.0,10.4,22.0,15.9,8.0,100,91,86,30.15,29.46,14,7,0,0.00
2013-3-10,30.9,18.3,8.3,25.0,13.9,6.0,90,83,69,30.38,30.15,28,8,0,0.01
2013-3-11,28.4,21.5,17.8,22.0,17.3,12.0,93,83,70,30.16,29.92,31,15,0,0.01
2013-3-12,33.6,23.6,16.5,24.0,19.6,14.0,93,85,63,30.29,30.14,26,11,0,0.00
2013-3-13,39.8,29.6,24.5,25.0,20.4,-99.9,88,73,50,30.30,30.19,28,-1,0,0.00
2013-3-14,46.4,37.6,30.2,22.0,19.7,15.0,64,50,30,30.30,30.04,28,16,0,0.00
2013-3-15,46.6,39.7,31.6,26.0,20.8,16.0,79,48,35,30.02,29.72,26,15,0,0.00
2013-3-16,38.0,32.5,27.7,25.0,17.9,4.0,86,57,33,29.77,29.67,18,11,0,0.00
2013-3-17,29.0,22.3,9.4,22.0,11.7,-2.0,92,65,42,29.80,29.44,35,17,0,0.00
2013-3-18,20.6,14.5,7.3,18.0,7.2,0.0,92,73,59,30.09,29.80,27,15,0,0.00
2013-3-19,29.4,19.8,9.9,6.0,-2.9,-12.0,76,41,19,30.34,30.04,30,13,0,0.00
2013-3-20,35.8,26.1,18.4,24.0,7.1,-12.0,90,49,24,30.33,29.77,30,17,0,0.00
2013-3-21,29.4,22.4,11.5,25.0,18.1,7.0,93,83,57,29.81,29.51,30,18,0,0.00
2013-3-22,19.0,12.4,8.0,9.0,4.6,0.0,89,72,49,30.00,29.79,23,10,0,0.00
2013-3-23,8.4,4.4,0.6,5.0,1.1,-3.0,87,86,85,30.38,29.98,13,6,0,0.00
2013-3-24,9.5,4.1,0.1,7.0,0.9,-3.0,88,86,85,30.46,30.31,16,6,0,0.00
2013-3-25,19.4,9.2,-0.3,13.0,2.3,-8.0,87,75,37,30.55,30.38,22,9,0,0.00
2013-3-26,34.2,23.2,12.9,22.0,13.1,2.0,86,66,54,30.38,30.04,28,14,0,0.00
2013-3-27,37.6,29.6,23.0,25.0,21.0,18.0,94,73,46,30.06,29.98,17,9,0,0.01
2013-3-28,43.4,35.1,28.4,24.0,20.4,14.0,76,57,33,30.04,29.99,16,8,0,0.00
2013-3-29,40.7,34.1,28.5,31.0,24.6,22.0,90,69,51,30.04,29.97,18,11,0,0.00
2013-3-30,40.7,32.1,27.1,28.0,22.5,15.0,80,68,49,30.12,29.97,28,11,0,0.00
2013-3-31,46.3,34.3,24.0,22.0,16.7,10.0,90,53,24,30.10,29.95,29,14,0,0.00
2013-4-1,42.2,33.9,26.5,29.0,20.9,14.0,95,62,37,29.96,29.79,16,6,0,0.00
2013-4-2,29.7,27.3,24.9,29.0,26.1,24.0,96,95,94,30.07,29.83,11,2,0,0.04
2013-4-3,45.7,31.6,24.0,28.0,22.0,13.0,95,71,34,30.16,30.05,18,5,0,0.03
2013-4-4,47.4,36.6,28.4,27.0,23.9,18.0,93,64,32,30.08,29.89,22,13,0,0.00
2013-4-5,45.8,37.4,26.9,32.0,22.7,18.0,95,59,36,29.89,29.53,32,15,0,0.00
2013-4-6,38.5,30.3,23.6,27.0,22.7,20.0,95,75,51,29.89,29.69,24,12,0,0.00
2013-4-7,37.1,29.0,24.9,29.0,25.6,23.0,96,87,61,29.79,29.63,31,16,0,0.00
2013-4-8,43.5,26.5,8.7,28.0,16.7,-99.9,94,73,48,29.66,29.37,24,-14,0,0.00
2013-4-9,6.9,1.7,-3.7,4.0,-1.6,-7.0,88,86,83,30.41,29.65,13,5,0,0.00
2013-4-10,19.0,9.0,-3.4,17.0,6.0,-7.0,92,87,82,30.46,30.14,24,6,0,0.01
2013-4-11,30.3,24.7,15.9,25.0,21.3,14.0,94,87,74,30.14,29.89,24,10,0,0.00
2013-4-12,36.2,28.1,22.0,24.0,18.8,12.0,94,71,41,29.93,29.83,24,12,0,0.00
2013-4-13,36.9,29.6,19.1,28.0,16.0,-99.9,95,63,38,29.83,29.29,47,-2,0,0.00
2013-4-14,20.8,14.9,9.6,17.0,-0.0,-99.9,92,65,45,29.87,29.36,30,-51,0,0.00
2013-4-15,22.5,15.4,10.3,21.0,13.0,8.0,93,90,77,30.00,29.76,11,4,0,0.09
2013-4-16,29.8,17.5,7.8,24.0,14.7,5.0,93,89,73,30.02,29.81,33,7,0,0.03
2013-4-17,13.1,8.9,2.7,11.0,6.5,0.0,90,89,87,30.30,29.89,19,8,0,0.00
2013-4-18,14.8,8.2,0.2,12.0,5.3,-3.0,91,88,86,30.47,30.30,26,11,0,0.00
2013-4-19,28.5,20.0,11.9,21.0,15.4,10.0,93,83,66,30.45,30.00,30,20,0,0.01
2013-4-20,34.5,26.7,22.1,26.0,23.5,20.0,95,88,66,30.03,29.92,26,13,0,0.04
2013-4-21,35.9,28.7,23.2,26.0,21.4,16.0,95,76,49,30.07,29.91,26,13,0,0.00
2013-4-22,27.2,18.1,7.8,25.0,16.2,5.0,95,92,89,30.19,29.84,19,8,0,0.00
2013-4-23,23.3,12.9,4.4,22.0,9.9,1.0,94,88,76,30.37,30.18,15,5,0,0.06
2013-4-24,31.8,22.7,13.9,11.0,7.9,5.0,78,55,36,30.36,30.24,26,13,0,0.00
2013-4-25,42.4,32.4,23.3,14.0,8.8,3.0,49,38,28,30.22,29.97,29,14,0,0.00
2013-4-26,46.8,38.7,30.7,19.0,10.8,2.0,39,32,25,30.13,30.00,11,4,0,0.00
2013-4-27,48.7,41.2,33.1,21.0,14.5,9.0,45,34,26,30.09,29.89,23,12,0,0.00
2013-4-28,51.7,42.6,35.0,31.0,23.5,17.0,74,48,33,29.89,29.71,29,14,0,0.00
2013-4-29,51.7,42.9,35.1,29.0,21.7,14.0,76,46,27,29.75,29.45,31,17,0,0.00
2013-4-30,45.3,37.3,30.5,31.0,26.9,22.0,95,68,45,29.52,29.40,26,10,0,0.00
2013-5-1,17.4,13.3,10.3,16.0,11.2,8.0,93,91,90,30.67,30.25,10,5,0,0.00
2013-5-2,28.3,19.4,8.1,25.0,15.2,6.0,96,85,51,30.86,30.56,16,4,0,0.16
2013-5-3,45.2,33.6,23.9,26.0,15.0,8.0,69,48,32,30.56,30.02,22,8,0,0.00
2013-5-4,41.3,33.4,27.6,28.0,24.3,20.0,87,70,55,30.06,29.93,12,4,0,0.00
2013-5-5,44.3,34.3,25.7,32.0,25.9,20.0,95,73,48,30.06,29.97,20,5,0,0.00
2013-5-6,47.4,39.9,33.7,34.0,28.7,24.0,84,65,52,29.97,29.78,17,5,0,0.00
2013-5-7,48.3,37.8,32.4,34.0,31.2,27.0,95,78,46,29.87,29.75,16,8,0,0.00
2013-5-8,41.6,35.5,32.9,34.0,31.6,29.0,96,86,68,29.98,29.82,15,5,0,0.06
2013-5-9,44.2,34.6,31.1,37.0,32.2,30.0,97,91,59,30.11,29.98,12,4,0,0.35
2013-5-10,46.9,38.1,30.6,34.0,25.3,-99.9,96,66,41,30.22,30.08,12,-16,0,0.05
2013-5-11,51.7,42.0,34.3,32.0,25.9,17.0,82,56,33,30.23,30.09,11,5,0,0.00
2013-5-12,59.4,48.6,38.6,30.0,27.3,24.0,66,45,30,30.10,29.93,15,8,0,0.00
2013-5-13,66.3,55.5,47.3,33.0,29.8,26.0,51,39,25,29.94,29.73,17,9,0,0.00
2013-5-14,65.7,55.9,49.0,33.0,29.3,27.0,55,37,23,29.73,29.58,24,10,0,0.00
2013-5-15,61.4,49.2,42.7,41.0,35.3,30.0,86,61,31,29.68,29.60,22,8,0,0.23
2013-5-16,61.0,47.7,41.1,38.0,30.3,-99.9,87,57,26,29.68,29.56,23,1,0,0.00
2013-5-17,61.6,52.5,45.8,34.0,22.5,13.0,63,34,17,29.64,29.54,27,15,0,0.00
2013-5-18,49.8,41.3,32.4,34.0,27.3,13.0,95,62,23,29.65,29.54,25,12,0,0.01
2013-5-19,43.7,35.0,29.9,33.0,30.1,28.0,96,83,61,29.80,29.64,24,12,0,0.00
2013-5-20,39.9,33.4,29.5,38.0,30.1,23.0,97,88,72,29.98,29.76,17,6,0,0.04
2013-5-21,48.8,36.6,26.0,30.0,26.3,23.0,92,69,43,30.00,29.86,17,7,0,0.00
2013-5-22,58.0,46.4,38.9,36.0,30.2,25.0,89,55,35,29.86,29.63,23,7,0,0.00
2013-5-23,63.5,49.0,39.0,43.0,34.0,18.0,89,61,17,29.71,29.56,35,11,0,0.00
2013-5-24,62.0,52.5,38.3,28.0,19.7,12.0,56,29,18,29.75,29.56,28,13,0,0.00
2013-5-25,64.0,54.8,47.4,24.0,14.1,8.0,36,21,12,29.70,29.61,27,14,0,0.00
2013-5-26,64.3,55.8,48.6,20.0,15.1,10.0,28,20,13,29.62,29.53,21,11,0,0.00
2013-5-27,60.0,51.7,46.1,24.0,18.5,12.0,39,27,21,29.54,29.47,28,12,0,0.00
2013-5-28,56.7,48.3,39.8,33.0,22.0,10.0,77,37,25,29.54,29.34,27,9,0,0.00
2013-5-29,42.9,36.3,31.8,36.0,31.5,27.0,96,83,59,29.59,29.33,27,11,0,0.01
2013-5-30,44.5,36.1,30.0,30.0,23.3,17.0,95,63,34,29.76,29.53,35,19,0,0.00
2013-5-31,44.9,36.6,27.9,27.0,18.7,-99.9,68,51,36,29.99,29.70,32,6,0,0.00
2013-6-1,50.9,40.4,31.3,33.0,29.7,26.0,89,68,42,30.11,29.99,11,3,0,0.00
2013-6-2,66.5,53.3,40.7,30.0,25.0,16.0,64,37,18,30.04,29.53,24,11,0,0.00
2013-6-3,63.7,54.5,44.9,33.0,20.9,9.0,42,28,17,29.64,29.39,25,14,0,0.00
2013-6-4,63.4,47.0,35.4,39.0,21.9,12.0,95,43,18,29.85,29.63,21,9,0,0.00
2013-6-5,60.3,44.3,34.0,39.0,32.3,20.0,97,69,22,29.94,29.82,10,3,0,0.00
2013-6-6,61.2,49.9,-12.9,33.0,21.2,-99.9,60,37,29,29.90,29.78,14,-27,0,0.00
2013-6-7,64.3,52.6,39.8,40.0,33.2,28.0,78,50,26,29.80,29.53,15,5,0,0.00
2013-6-8,62.8,52.4,41.6,41.0,31.6,22.0,92,48,27,29.73,29.43,24,7,0,0.00
2013-6-9,72.4,59.7,47.1,33.0,28.7,22.0,44,32,20,29.76,29.57,26,9,0,0.00
2013-6-10,74.3,65.1,56.9,31.0,28.4,25.0,37,26,17,29.57,29.46,24,13,0,0.00
2013-6-11,68.7,61.8,53.0,28.0,20.8,12.0,29,21,13,29.63,29.41,31,19,0,0.00
2013-6-12,71.7,60.2,47.7,28.0,23.8,19.0,39,26,15,29.79,29.64,22,9,0,0.00
2013-6-18,50.8,49.1,47.4,41.0,39.6,39.0,75,70,64,29.57,29.55,16,12,0,0.04
2013-6-19,70.5,60.4,48.8,39.0,18.7,7.0,70,25,9,29.55,29.41,29,15,0,0.00
2013-6-20,68.9,57.0,43.4,27.0,17.8,9.0,34,22,12,29.60,29.43,28,8,0,0.00
2013-6-21,68.6,60.1,53.2,28.0,16.2,10.0,37,19,12,29.58,29.51,30,14,0,0.00
2013-6-22,65.9,58.0,49.2,34.0,21.0,13.0,54,25,17,29.53,29.45,29,13,0,0.00
2013-6-24,67.9,61.8,53.7,26.0,19.7,13.0,35,20,13,29.49,29.43,25,14,0,0.00
2013-6-25,65.6,55.5,45.3,36.0,32.1,27.0,61,42,30,29.73,29.46,26,13,0,0.00
2013-6-26,75.7,64.0,53.5,35.0,32.9,28.0,47,33,21,29.79,29.72,18,11,0,0.00
2013-6-27,79.6,67.0,55.5,34.0,30.1,25.0,43,27,15,29.84,29.74,14,6,0,0.00
2013-6-28,79.8,66.9,57.5,47.0,32.3,-99.9,68,31,17,29.78,29.66,21,-16,0,0.00
2013-6-29,75.7,64.3,56.4,48.0,44.1,34.0,66,50,22,29.73,29.64,9,3,0,0.02
2013-6-30,71.1,57.9,49.6,52.0,45.9,42.0,87,66,38,29.82,29.68,14,4,0,0.12
2013-7-1,65.3,57.8,49.1,48.0,44.1,40.0,87,62,46,29.88,29.82,14,3,0,0.00
2013-7-2,70.4,58.7,49.5,44.0,39.5,36.0,79,51,28,29.88,29.76,8,2,0,0.00
2013-7-3,74.7,59.9,52.1,47.0,38.3,31.0,72,47,22,29.75,29.59,24,5,0,0.06
2013-7-4,71.8,59.7,50.7,46.0,41.1,35.0,71,52,30,29.67,29.57,13,5,0,0.00
2013-7-5,69.7,58.2,50.7,50.0,45.5,41.0,80,64,43,29.56,29.48,21,8,0,0.03
2013-7-6,72.3,59.2,49.6,45.0,41.4,36.0,81,55,27,29.66,29.52,21,9,0,0.04
2013-7-7,76.0,62.0,49.9,45.0,39.7,31.0,77,48,22,29.69,29.59,24,8,0,0.01
2013-7-8,69.3,59.7,51.1,49.0,41.3,35.0,74,52,32,29.76,29.62,24,12,0,0.01
2013-7-9,72.8,63.0,56.2,42.0,35.9,27.0,49,38,19,29.84,29.75,20,8,0,0.00
2013-7-10,79.3,66.0,56.3,49.0,37.5,27.0,65,37,16,29.80,29.60,14,5,0,0.00
2013-7-11,79.4,69.2,60.1,47.0,36.6,27.0,62,34,15,29.61,29.41,39,9,0,0.01
2013-7-12,73.4,59.0,51.7,52.0,46.4,41.0,92,66,35,29.66,29.40,24,14,0,0.15
2013-7-13,70.5,57.8,51.1,52.0,48.2,43.0,96,72,44,29.79,29.67,15,9,0,0.12
2013-7-14,63.7,56.7,51.3,54.0,50.2,46.0,94,79,61,29.83,29.75,13,4,0,0.00
2013-7-15,71.0,57.2,50.4,53.0,50.1,47.0,96,79,42,29.80,29.66,9,4,0,0.00
2013-7-16,70.8,60.2,52.5,49.0,43.3,37.0,84,56,32,29.76,29.68,15,4,0,0.00
2013-7-17,57.3,54.9,53.1,45.0,41.4,38.0,66,61,56,29.78,29.74,16,9,0,0.00
2013-8-12,63.0,51.1,46.1,42.0,33.5,-99.9,80,59,43,29.89,29.83,20,-39,0,0.00
2013-8-13,61.7,49.9,45.8,44.0,36.8,-99.9,85,65,44,29.96,29.84,19,-14,0,0.04
2013-8-14,66.0,51.9,44.9,42.0,29.8,-99.9,77,50,30,29.97,29.88,15,-38,0,0.01
2013-8-15,56.8,53.8,52.4,30.0,28.6,27.0,42,38,33,29.88,29.82,17,11,0,0.00
2013-10-10,31.6,30.2,29.0,30.0,29.1,28.0,96,95,92,29.39,29.29,27,16,0,0.01
2013-10-11,30.6,27.6,26.5,30.0,23.4,-99.9,97,93,95,30.05,29.32,25,-19,0,0.01
2013-10-12,40.7,32.1,25.5,28.0,25.0,22.0,95,76,55,30.13,30.05,21,11,0,0.02
2013-10-13,50.8,39.8,32.8,33.0,24.4,-99.9,90,57,35,30.08,29.68,23,-1,0,0.02
2013-10-14,35.3,27.6,19.2,32.0,26.4,18.0,96,95,89,30.14,29.62,18,6,0,0.01
2013-10-15,23.9,19.3,15.9,23.0,17.6,14.0,94,93,92,30.32,30.14,10,2,0,0.01
2013-10-16,30.4,22.6,17.0,25.0,19.0,15.0,94,86,72,30.27,30.13,26,13,0,0.00
2013-10-17,31.5,25.5,20.5,24.0,20.0,17.0,94,80,62,30.14,30.00,28,11,0,0.01
2013-10-18,25.6,20.1,15.2,18.0,16.2,13.0,93,85,66,30.28,30.04,28,9,0,0.00
2013-10-19,39.2,30.2,22.4,22.0,18.3,16.0,77,62,47,30.27,29.91,37,22,0,0.00
2013-10-20,32.4,26.8,21.9,28.0,22.6,20.0,95,85,61,30.09,29.84,29,8,0,0.00
2013-10-21,36.8,28.4,20.7,25.0,21.9,19.0,94,77,58,30.27,30.09,24,12,0,0.00
2013-10-22,35.9,31.3,29.8,24.0,22.5,22.0,73,70,63,30.22,30.13,29,18,0,0.00
2013-10-23,52.6,40.4,32.8,27.0,21.5,-99.9,63,49,31,30.04,29.95,20,-4,0,0.00
2013-10-24,52.0,41.9,36.4,30.0,24.7,21.0,69,52,30,30.04,29.97,16,6,0,0.00
2013-10-25,52.3,41.7,35.6,25.0,20.8,17.0,64,45,28,30.06,29.98,17,8,0,0.00
2013-10-26,51.2,40.1,33.5,26.0,23.0,18.0,70,52,33,30.14,29.98,21,5,0,0.00
2013-10-27,35.7,34.5,33.0,21.0,20.0,19.0,58,56,53,29.98,29.86,25,20,0,0.00
2013-11-1,30.0,25.2,22.2,23.0,15.1,-99.9,94,73,60,30.26,0.00,28,-20,0,0.00
2013-11-2,45.4,34.3,25.3,20.0,13.9,5.0,80,48,20,30.24,29.67,34,23,0,0.00
2013-11-3,41.1,30.4,11.7,25.0,13.2,3.0,90,55,23,29.73,29.40,39,18,0,0.00
2013-11-4,27.3,16.4,9.4,15.0,9.1,0.0,90,74,43,30.08,29.73,25,12,0,0.00
2013-11-5,15.8,11.2,7.3,12.0,6.5,3.0,90,82,68,30.34,30.04,33,15,0,0.00
2013-11-6,27.0,18.1,9.6,22.0,14.1,5.0,92,84,74,30.49,30.33,36,20,0,0.00
2013-11-7,36.6,29.3,21.1,24.0,20.6,18.0,88,71,57,30.50,29.97,30,18,0,0.00
2013-11-8,39.6,34.0,29.9,22.0,18.2,14.0,69,53,44,29.95,29.72,50,21,0,0.00
2013-11-9,45.7,35.1,27.7,22.0,18.0,-99.9,70,52,36,30.13,29.91,28,4,0,0.00
2013-11-10,45.4,37.3,31.4,19.0,16.9,12.0,55,45,26,30.13,30.06,22,14,0,0.00
2013-11-11,45.5,35.5,24.8,25.0,18.4,17.0,100,52,33,30.38,30.06,25,12,0,0.00
2013-11-12,47.4,36.5,25.1,24.0,17.7,5.0,93,50,26,30.46,30.28,23,10,0,0.00
2013-11-13,43.4,36.4,28.4,26.0,12.9,6.0,89,39,26,30.27,29.90,25,16,0,0.00
2013-11-14,37.0,29.8,24.1,26.0,18.9,9.0,94,67,39,29.93,29.67,29,16,0,0.00
2013-11-15,35.7,28.4,21.7,25.0,16.6,11.0,100,64,43,29.67,29.37,42,17,0,0.00
2013-11-16,24.7,20.7,17.0,22.0,18.6,15.0,94,91,78,29.53,29.24,47,20,0,0.00
2013-11-17,26.9,19.3,11.4,19.0,15.0,9.0,92,84,67,30.19,29.53,35,18,0,0.00
2013-11-18,35.9,28.7,22.3,20.0,17.4,15.0,85,64,43,30.25,30.00,38,23,0,0.00
2013-11-19,35.2,29.6,25.7,26.0,19.6,11.0,95,69,41,30.00,29.67,34,18,0,0.00
2013-11-20,31.7,27.6,24.5,24.0,22.3,20.0,94,81,65,29.87,29.73,31,15,0,0.00
2013-11-21,25.6,8.9,2.0,25.0,6.2,-1.0,100,88,79,30.68,29.84,10,4,0,0.00
2013-11-22,28.9,18.7,6.2,-2.0,-18.9,-38.0,58,20,6,30.84,30.59,12,4,0,0.01
2013-11-23,33.7,22.0,13.9,22.0,13.1,-4.0,86,70,39,30.58,30.25,12,5,0,0.00
2013-11-24,38.8,29.9,21.9,25.0,18.6,0.0,78,63,37,30.23,29.87,17,6,0,0.00
2013-11-25,27.8,23.6,20.2,19.0,14.8,7.0,78,69,52,30.31,29.97,11,5,0,0.00
2013-11-26,33.4,23.6,16.6,19.0,14.7,13.0,87,70,48,30.46,30.30,18,9,0,0.00
2013-11-27,37.3,29.7,22.6,16.0,13.7,12.0,66,52,40,30.31,30.11,26,17,0,0.00
2013-11-28,45.1,34.9,30.2,17.0,14.4,11.0,56,44,29,30.10,29.96,21,10,0,0.00
2013-11-29,36.9,29.5,24.9,19.0,16.4,11.0,74,59,44,30.14,29.95,31,21,0,0.00
2013-11-30,33.3,26.3,22.8,19.0,16.4,15.0,80,67,48,30.18,30.09,35,20,0,0.00
2013-12-1,23.3,22.9,22.6,18.0,17.5,17.0,80,80,79,30.14,30.09,26,23,0,0.00